Simultaneous Nadir Overpasses (SNOs) Predictions

Prediction of SNOs between AQUA and GOES-15 Satellite Orbit:

Table of predicted SNOs for the next 14.0 days since TLE Epoch: 4/24/2021
Index Date Time (AQUA) AQUA Lat,Lon GOES-15 Lat,Lon Distance(km) Time Diff (sec)
1 04/25/2021 21:51:50 0.70,-124.19 -0.03,-127.64 391.85 80
2 04/26/2021 10:13:05 0.39,-129.35 0.03,-127.63 194.60 80
3 04/28/2021 10:00:53 -0.23,-126.39 0.03,-127.55 132.28 80
4 04/28/2021 22:22:17 -0.91,-131.57 -0.03,-127.50 463.02 80
5 04/30/2021 09:48:41 -0.85,-123.43 0.02,-127.46 458.53 80
6 04/30/2021 22:10:05 -0.28,-128.62 -0.03,-127.41 136.70 80
7 05/02/2021 21:57:53 0.35,-125.66 -0.03,-127.32 189.32 80
8 05/03/2021 10:19:07 0.75,-130.81 0.04,-127.32 395.97 80
9 05/05/2021 10:06:54 0.18,-127.84 0.04,-127.23 70.11 80
10 05/07/2021 09:54:43 -0.46,-124.88 0.03,-127.13 255.68 80
11 05/07/2021 22:16:06 -0.66,-130.07 -0.04,-127.07 341.28 80
